Location: Tabor
(49.4170°N, 14.6670°E)
Time: 09:43:53
(UTC+01:00)

ISS - Visible Passes

Search period start: 11 February 2026 00:00
Search period end: 21 February 2026 00:00
Orbit: 413 x 429 km, 51.6° (Epoch: 10 February)

Date Brightness Start Highest point End Pass type
(mag) Time Alt. Az. Time Alt. Az. Time Alt. Az.
12 Feb -1.1 06:20:56 10° S 06:23:26 20° SE 06:25:54 10° E visible
13 Feb -0.8 05:34:55 10° SSE 05:36:35 13° SE 05:38:15 10° ESE visible
14 Feb -2.6 06:22:42 10° SW 06:25:53 42° SSE 06:29:04 10° ENE visible
15 Feb -2.0 05:36:20 12° SSW 05:38:54 29° SE 05:41:52 10° E visible
16 Feb -1.6 04:51:30 20° SSE 04:51:57 20° SE 04:54:30 10° E visible
16 Feb -3.7 06:25:05 10° WSW 06:28:26 82° SSE 06:31:47 10° ENE visible
17 Feb -0.5 04:06:31 11° ESE 04:06:31 11° ESE 04:06:48 10° ESE visible
17 Feb -3.4 05:39:31 24° SW 05:41:20 61° SSE 05:44:39 10° ENE visible
18 Feb -2.8 04:54:25 43° SE 04:54:25 43° SE 04:57:27 10° ENE visible
18 Feb -3.7 06:27:42 10° W 06:31:02 65° N 06:34:22 10° ENE visible
19 Feb -0.8 04:09:12 16° E 04:09:12 16° E 04:10:10 10° E visible
19 Feb -3.8 05:42:11 27° W 05:43:50 78° NNW 05:47:11 10° ENE visible
20 Feb -3.7 04:56:54 74° E 04:56:54 74° E 05:00:00 10° ENE visible
